Zurück zum Katalog

STARLINK-11149

AktivKommunikationVLEO
NORAD 60041·PAYLOAD·🇺🇸 United States

Gestartet Jun 8, 2024 von Vandenberg Space Force Base

Loading…

Nächste Überflüge (nächste 24 Stunden)

TLE

AktuellSource: CelesTrak SupGP

Epoche: Sep 14, 2026, 21:42 UTC

1 60041C 24112D   26257.90465278  .00084321  00000+0  69444-3 0  2578
2 60041  53.1568  53.6676 0001091  81.4341  47.5896 15.69672292    15

Verfolge STARLINK-11149 in Echtzeit mit AllMySat

Download on the App Store